Starlink 5491

operational
NORAD ID: 55332 Int'l Des: 2023-013 Owner: SPXS Country: US Constellation: starlink
LEOCIRCULAR

关于 Starlink 5491

正在加载描述...

实时位置

正在加载3D地球...

即将过境

高度历史

Altitude vs Time

uPlot chart will show altitude changes over time

两行轨道根数

1 55332U 23013B 25351.16509809 -.00000132 00000-0 52936-5 0 9998
2 55332 43.0055 15.8963 0001143 260.6203 99.4511 15.02535197159447
Epoch: Dec 17, 2025 • Age: 11 hours

当前状态

高度 559.8 km
速度 7.58 km/s
星下点 -5.77°S, 54.29°E
发射日期 Jan 26, 2023
运行时间 2.8 years
类型 internet

技术详情

分类 Payload
质量 305.00 kg
干质量 290.00 kg
总质量 305.00 kg
长度 0.20 m
直径 2.80 m
跨度 9.00 m
形状 Box + pan
制造商 SPXS
平台类型 Starlink
阶段状态 In Orbit
所有者/国家 SPXS/US

大型星座

Loading constellations...